Location: Deurze
(52.9838°N, 6.6090°E)
Time: 19:22:43
(UTC+00:00)

S3M - Pass Details

Date: 11 March 2026
Orbit: 948 x 1004 km, 83.0° (Epoch: 20 April)

Event Time Altitude Azimuth Distance (km) Brightness Sun altitude
Rises 19:41:01 0° 348° (NNW) 3,745 7.5 -20.1°
Reaches altitude 10° 19:43:34 10° 347° (NNW) 2,791 6.8 -20.4°
Maximum altitude 19:49:59 77° 264° (W) 1,033 4.2 -21.3°
Enters shadow 19:56:10 11° 179° (S) 2,700 6.1 -22.1°
